Wind_Speed
46 46 45 45 45 45 46 46 46 46 46 46 46 45 46 46 46 47 47 47 48 48 49 50 50 50 51 51 51 52 52 52 52 52 53 53 53 52 53 53 53 53 53 53 52 52 52 51 50 50 50 49 48 47 47 46 46 45 44 43 42 40 38 38 37 36 36 35 35 34 34 34 34 35 35 35 35 35 36 36 36 36 35 35 34
47 48 47 47 47 46 47 47 48 47 47 47 46 46 47 46 46 47 47 47 47 48 48 49 49 49 50 50 51 51 52 52 51 51 51 51 50 50 50 49 49 49 49 49 49 49 49 49 48 48 48 47 46 46 45 44 43 43 42 41 40 38 37 36 35 35 35 35 34 34 35 35 35 36 36 36 36 36 36 36 35 34 34 34 34
46 48 48 49 48 48 48 49 49 48 48 47 47 47 48 48 48 49 49 48 48 49 49 49 49 49 50 50 50 51 51 51 51 51 51 50 50 49 48 48 47 47 47 46 46 46 46 46 46 46 46 46 45 44 44 42 42 41 41 40 39 37 36 36 35 35 36 35 35 36 37 37 37 37 37 36 36 36 36 35 35 34 34 33 33
45 46 47 48 49 49 49 50 50 50 49 48 48 48 48 49 49 50 51 51 50 51 51 51 50 50 51 51 51 51 51 51 51 50 50 50 50 49 49 48 47 47 46 45 45 44 44 44 44 44 44 44 44 43 43 42 41 41 40 39 38 37 37 36 35 37 38 37 37 38 38 38 38 38 38 37 37 37 36 36 35 35 34 34 34
45 46 46 47 48 48 49 49 50 51 52 52 51 50 50 50 50 51 52 52 52 52 53 53 52 52 52 52 52 51 52 52 51 51 51 51 51 50 50 49 49 48 47 46 45 44 44 44 43 44 44 44 43 43 43 42 40 41 41 40 39 38 38 37 37 38 39 39 38 38 38 39 39 38 38 39 38 38 38 37 37 37 36 36 36
46 46 47 47 48 48 49 49 49 49 51 53 54 54 53 53 53 52 53 53 53 52 53 54 53 53 53 53 53 53 53 53 53 53 53 52 52 52 51 51 51 50 49 48 47 46 45 45 44 45 45 44 44 44 43 42 41 41 42 41 40 40 40 39 39 40 41 41 39 39 39 39 39 39 39 40 40 40 40 40 40 39 39 38 38
46 46 47 48 48 49 50 50 49 49 49 50 52 55 56 57 56 56 56 56 55 54 54 54 54 54 54 55 55 55 55 55 55 55 55 54 53 53 52 52 52 51 50 49 49 48 47 46 46 46 46 46 46 45 45 44 43 43 44 44 43 42 43 42 42 42 43 42 41 40 40 40 40 40 40 40 40 41 42 42 42 41 41 40 40
45 45 46 48 48 49 50 50 51 51 51 50 51 52 54 56 58 58 58 58 58 57 56 56 56 55 55 55 56 56 57 57 57 57 56 56 55 55 55 55 54 53 52 51 51 50 50 49 49 49 49 49 48 47 47 47 46 46 46 47 46 45 45 45 44 44 44 43 43 42 42 42 41 41 41 41 42 43 43 43 43 43 43 42 42
45 45 46 47 48 49 49 50 51 52 53 53 53 53 53 54 56 57 58 58 59 59 59 59 58 58 57 57 57 57 57 57 57 57 57 57 57 57 57 57 56 55 54 53 53 52 52 51 51 52 51 51 51 50 50 49 49 48 48 49 49 48 48 48 46 46 45 45 44 44 44 44 44 44 44 44 44 44 45 45 45 45 45 45 44
47 47 47 48 48 49 49 50 51 52 53 54 55 55 55 55 55 55 56 56 57 58 59 59 59 60 60 60 59 59 58 57 56 57 58 59 59 59 59 59 58 57 56 55 54 54 54 54 54 54 54 54 53 53 52 52 51 51 51 51 52 51 51 50 48 48 47 47 46 47 47 47 46 46 46 46 47 47 48 48 48 48 48 47 47
50 50 50 50 50 50 51 51 51 52 53 54 55 56 56 56 56 56 56 56 56 57 58 58 58 58 59 60 61 61 60 59 58 58 59 59 60 60 60 59 59 58 57 56 56 57 57 57 56 56 56 56 56 55 55 54 54 54 54 54 54 54 54 53 51 50 50 49 49 50 50 49 49 49 49 49 49 50 50 51 51 51 51 51 50
53 53 52 53 53 53 53 53 53 53 54 54 55 56 56 57 57 57 57 56 57 58 58 58 57 57 58 59 59 60 60 60 61 62 62 62 62 62 60 59 59 59 58 58 58 59 60 60 59 58 58 58 57 57 57 57 56 56 56 56 57 56 56 56 54 53 54 53 53 53 53 52 52 52 52 52 52 52 53 53 53 54 54 54 53
56 56 56 55 55 55 55 55 55 56 56 56 56 56 56 57 58 58 58 58 58 58 59 58 58 58 59 58 57 57 57 59 60 62 63 64 65 64 62 60 60 59 58 58 59 60 61 61 60 60 60 60 60 59 59 59 59 59 59 59 60 59 59 59 58 57 57 57 56 56 55 55 55 55 55 55 55 55 55 56 56 56 56 56 55
59 59 59 59 59 59 58 58 58 58 58 59 59 58 58 58 58 59 59 60 60 60 60 60 60 61 60 58 57 58 57 57 59 60 61 62 63 63 62 63 63 62 60 60 60 60 61 61 60 60 61 61 62 62 61 62 62 62 62 62 62 62 62 62 60 60 60 60 59 59 58 58 58 58 58 58 57 57 57 58 58 57 57 57 57
63 63 63 62 62 62 62 62 61 61 61 61 62 61 61 60 60 59 60 60 60 61 61 62 62 62 61 60 59 59 58 58 61 61 60 59 60 60 61 62 63 63 62 62 63 62 62 62 61 61 60 61 62 62 63 64 64 65 65 65 65 65 65 64 63 62 63 63 62 62 62 61 61 61 61 60 60 60 60 60 60 59 59 58 58
66 66 66 66 66 66 65 65 65 65 65 64 64 64 64 63 63 63 62 61 61 62 62 62 62 63 63 62 61 60 59 62 64 62 60 59 59 60 60 60 60 61 61 62 63 63 64 64 64 63 62 61 61 62 63 64 65 66 66 67 68 68 68 67 66 65 65 66 66 65 65 64 64 63 63 63 62 62 62 61 61 61 61 61 60
70 69 69 69 69 69 69 69 69 68 68 68 68 68 67 66 66 66 66 65 65 65 64 64 64 66 65 63 62 61 62 64 65 63 62 62 61 61 61 60 60 60 60 61 62 62 63 64 64 64 63 63 62 63 63 64 65 65 65 66 67 68 68 68 68 67 67 68 68 67 67 66 65 65 65 64 64 63 63 63 63 63 63 63 63
73 73 72 72 72 72 73 73 73 72 72 71 71 71 71 70 70 69 68 68 68 67 67 67 67 67 67 66 65 64 64 65 66 65 65 64 64 64 64 63 62 62 62 62 61 61 62 62 62 61 62 62 62 63 64 65 65 66 66 65 65 66 66 67 67 67 67 67 68 68 68 67 66 66 66 65 65 65 65 65 64 65 65 65 66
78 77 76 75 75 75 75 75 76 75 75 75 74 74 74 74 73 72 71 71 70 70 70 71 70 69 69 69 68 67 66 66 67 67 66 66 66 67 66 66 65 64 64 63 63 62 62 61 61 60 60 61 61 62 63 64 65 65 66 66 66 66 66 66 67 67 67 67 67 68 68 67 67 67 67 66 66 66 66 66 66 66 67 67 67
82 81 80 79 79 78 78 78 78 78 78 78 78 77 77 77 77 77 75 74 74 73 73 74 73 72 72 72 71 70 69 68 68 68 68 68 68 69 68 68 67 66 66 65 64 63 62 61 61 61 61 62 63 63 63 63 64 64 64 64 65 65 65 66 66 67 67 67 68 68 69 68 68 68 68 68 68 68 68 68 68 68 68 68 69
87 86 85 83 82 82 81 81 81 81 81 81 81 81 80 80 80 80 80 79 78 77 76 76 76 75 75 75 74 73 72 71 70 70 70 70 70 70 71 70 68 67 67 66 65 63 63 63 62 62 62 63 64 65 64 64 64 64 64 63 63 63 63 64 65 65 66 66 67 67 69 69 69 69 70 70 70 70 70 70 70 70 70 70 70
91 91 90 88 87 86 85 85 85 85 84 84 84 84 83 83 83 83 83 83 82 81 80 80 80 80 79 78 78 77 76 75 74 74 74 73 72 72 73 73 71 70 70 68 67 66 65 65 65 64 64 65 65 66 66 65 65 65 65 64 64 63 63 64 64 65 65 65 65 66 66 67 68 68 68 69 70 70 71 71 72 72 72 72 72
96 95 94 94 93 92 90 89 88 88 88 88 88 87 87 86 86 86 86 86 86 85 84 84 83 83 83 83 82 81 80 79 79 78 78 76 76 75 76 76 75 74 74 73 71 70 68 68 68 68 68 68 68 68 68 67 67 66 66 65 65 64 64 64 65 66 66 67 66 66 66 66 66 67 66 67 67 67 67 68 69 69 69 70 70
100 100 99 98 98 97 96 95 94 92 92 92 91 91 91 90 90 89 89 89 88 88 88 88 87 87 87 87 87 86 85 84 83 82 81 80 80 79 79 80 79 78 78 78 75 73 72 71 71 71 71 71 71 71 71 71 70 69 68 67 66 65 64 64 65 66 66 67 67 67 67 68 68 68 67 67 67 67 66 66 66 66 66 66 66
105 104 104 103 102 102 101 100 99 98 97 96 95 95 95 94 94 93 93 92 92 91 91 92 91 91 91 91 90 89 89 88 88 86 85 84 83 82 82 84 82 81 82 81 79 77 75 74 74 75 75 74 74 74 75 75 74 73 71 69 68 67 66 66 66 67 67 68 68 68 68 68 68 69 69 69 69 69 68 68 68 67 67 67 66
109 109 109 108 107 107 106 105 104 103 102 101 101 100 99 98 98 97 97 96 96 95 95 95 95 95 94 94 94 93 93 93 92 91 90 89 87 86 86 87 86 85 85 84 83 81 79 79 79 78 78 78 78 78 79 79 79 77 75 73 72 72 71 70 70 71 71 71 70 70 70 70 70 70 70 71 71 71 71 70 70 70 69 69 68
112 113 113 113 113 112 112 111 110 109 107 106 105 105 104 103 103 102 102 101 100 100 100 99 99 99 98 98 97 97 97 97 96 95 95 94 93 91 91 90 89 88 88 87 86 84 84 85 84 82 82 83 82 82 82 83 83 82 80 78 77 76 75 75 75 75 75 75 74 74 73 73 73 73 73 73 73 72 72 72 72 72 72 71 71
113 114 115 116 117 117 117 116 115 114 113 112 110 109 109 108 107 107 106 106 105 105 105 104 104 104 103 103 102 102 102 102 101 100 100 99 98 97 97 95 93 91 90 90 88 87 88 89 89 87 88 88 87 86 86 86 87 87 85 84 82 81 80 79 79 78 78 78 77 77 77 77 77 77 77 77 76 76 75 75 75 74 74 73 73
114 115 115 116 117 118 119 120 120 120 119 118 117 116 115 114 113 112 112 111 110 110 110 110 109 109 108 108 107 107 107 107 106 106 105 105 104 103 102 100 99 96 93 92 91 90 91 93 92 92 93 93 92 91 90 89 90 90 90 89 87 86 85 84 83 82 82 81 81 81 81 81 80 81 81 81 80 80 79 78 78 77 77 76 76
118 118 117 117 117 117 118 119 121 122 122 123 123 122 122 121 120 119 119 118 117 116 115 115 114 114 114 113 113 112 112 112 112 111 110 110 109 108 107 105 104 101 98 97 94 93 95 96 95 96 97 98 97 96 94 92 92 93 93 93 93 92 90 89 87 86 86 85 85 84 85 85 84 84 84 84 84 83 83 83 82 81 80 79 79
124 123 123 122 121 121 120 120 121 121 122 123 124 125 126 126 126 126 126 125 123 122 121 120 119 119 118 118 117 117 116 116 116 116 115 114 113 112 111 110 109 107 105 103 99 97 98 100 100 100 101 101 101 100 98 96 96 96 97 97 98 97 96 94 92 91 90 90 89 89 89 89 89 88 87 87 86 86 86 86 86 85 84 83 82
131 131 130 129 128 127 127 126 126 125 125 124 124 124 125 126 127 128 129 129 128 127 126 125 124 124 123 123 123 122 122 121 120 120 119 119 118 117 116 115 115 113 112 111 106 102 103 105 105 105 105 105 105 104 102 102 101 101 101 101 102 102 101 100 98 97 95 94 94 93 93 93 93 93 92 91 90 90 89 89 89 88 87 87 86
139 138 137 136 135 134 134 133 132 132 132 131 131 130 129 128 128 128 128 129 129 129 129 129 129 128 128 127 127 127 127 126 125 124 124 123 122 121 121 120 119 119 118 116 113 108 107 109 109 109 110 110 109 108 107 107 107 106 106 105 106 106 106 105 104 103 101 99 99 98 98 98 98 98 97 97 95 94 93 92 92 92 91 90 89
145 144 144 143 142 141 141 140 139 139 138 138 138 138 137 136 135 134 133 132 132 131 131 131 131 132 131 131 131 131 131 129 128 128 128 127 127 125 125 124 123 123 122 121 118 114 112 112 113 113 113 114 113 112 112 112 112 112 111 109 109 109 109 109 108 107 106 105 104 103 103 103 103 102 102 102 101 100 98 97 96 96 95 94 93
147 148 148 149 149 149 148 148 147 146 146 145 144 144 143 143 143 142 142 141 139 138 137 136 135 135 135 134 134 134 134 133 132 132 132 131 131 130 129 128 127 126 126 125 123 119 116 116 116 116 116 116 116 115 116 116 116 115 114 113 112 113 113 112 111 111 111 110 109 108 108 107 107 106 106 106 105 104 103 102 101 101 100 98 97
149 150 150 151 152 152 153 153 153 153 153 152 151 151 150 149 149 148 148 148 147 146 145 143 142 141 140 139 138 138 137 136 135 135 135 136 135 135 134 133 132 130 130 129 127 124 121 120 119 119 119 119 118 118 118 118 117 117 116 115 115 114 114 114 114 114 114 114 114 113 112 111 111 110 110 109 108 107 107 106 106 105 104 103 102
146 149 152 153 154 154 155 155 156 157 157 157 157 157 157 156 156 155 154 153 152 152 151 150 149 148 147 145 144 143 143 141 139 139 139 140 139 139 138 138 137 136 135 134 132 129 127 124 123 123 123 122 122 122 122 121 120 119 118 117 117 116 116 116 116 117 117 118 118 117 117 116 115 115 114 113 112 111 110 110 109 109 108 107 106
135 140 144 148 151 154 156 157 158 158 159 159 160 160 160 161 161 160 160 159 158 158 157 156 155 154 153 152 151 150 149 148 146 145 144 144 144 143 142 142 142 142 141 139 138 136 133 130 129 128 127 127 127 127 127 127 126 124 123 122 121 120 120 119 119 120 121 122 122 122 121 120 120 119 118 117 117 116 115 114 113 112 112 111 110
127 129 132 136 140 144 147 151 154 156 158 160 161 162 162 163 163 163 162 162 162 161 161 161 160 160 159 158 157 156 155 154 153 151 151 150 149 148 147 147 147 146 146 145 144 142 140 137 135 134 134 133 132 132 132 133 132 131 130 128 127 126 125 125 125 125 126 126 126 126 126 125 124 123 123 122 120 119 118 118 117 116 116 115 115
124 125 126 128 130 132 135 138 142 145 149 152 156 159 161 163 164 165 164 164 163 163 162 162 162 162 162 162 162 161 161 160 159 158 157 156 155 154 153 152 152 151 150 149 149 148 146 143 142 140 140 139 138 137 137 138 138 137 136 136 135 134 133 133 133 132 132 131 130 129 129 129 129 128 127 125 124 122 121 120 120 119 119 120 120
123 123 124 125 126 127 129 130 132 134 136 139 142 146 151 155 158 161 162 163 164 163 163 163 162 163 163 163 163 164 164 164 164 163 163 162 161 160 159 158 157 157 155 154 153 153 151 150 148 146 145 144 143 142 142 142 142 142 143 142 141 140 140 140 140 139 138 136 134 133 132 132 133 132 132 130 128 126 125 123 123 123 123 124 124
120 121 122 123 124 125 125 126 127 128 129 131 133 135 138 141 143 146 149 152 154 156 158 159 161 162 163 163 164 164 165 165 165 166 166 166 166 165 164 164 163 162 161 160 158 157 156 155 153 152 151 149 147 146 146 146 147 147 147 147 146 146 146 146 145 144 143 141 138 136 135 135 136 137 136 134 132 130 129 127 126 126 127 127 127
116 117 118 119 121 122 122 123 123 124 126 127 129 130 131 132 133 134 135 137 139 142 144 147 150 153 156 159 161 162 163 164 165 166 166 167 167 168 167 167 167 167 166 164 163 162 161 160 158 157 156 154 152 151 151 151 151 151 151 151 151 151 151 151 149 148 147 145 142 140 138 137 138 139 139 137 135 133 131 130 129 129 129 129 129
111 112 113 114 115 117 118 118 118 120 122 124 125 126 126 127 128 128 128 128 129 131 132 134 136 139 142 146 149 152 154 157 159 161 163 164 166 167 168 168 168 168 167 166 165 165 164 163 162 160 159 157 157 156 155 155 155 155 155 155 155 155 155 154 152 150 149 147 145 142 140 138 138 139 139 138 137 135 133 132 132 132 131 130 129
107 108 109 111 112 113 113 114 114 115 117 119 121 121 121 122 124 124 123 122 122 123 125 127 128 130 131 133 136 138 141 144 146 149 152 155 158 161 163 164 164 164 164 164 164 164 164 164 163 161 160 159 159 159 159 159 159 159 158 158 158 158 157 156 153 150 148 146 143 141 138 136 135 136 136 137 137 135 134 134 133 133 132 131 130
103 104 105 107 108 109 110 111 111 113 115 116 117 117 118 119 119 120 119 117 117 117 119 120 122 124 125 127 128 130 132 134 136 138 140 142 144 147 149 151 152 154 155 157 158 159 161 162 161 161 161 160 160 160 160 161 162 161 161 160 160 160 157 155 151 147 142 139 136 134 132 130 130 130 131 133 135 136 135 135 135 134 133 132 131
98 99 100 101 102 103 105 107 108 109 111 113 114 114 115 116 117 116 115 114 114 114 114 116 118 119 120 122 123 124 126 128 131 133 135 135 136 136 136 137 137 138 140 142 145 148 150 153 154 156 157 159 160 161 160 160 160 159 158 157 156 153 150 146 141 135 131 128 126 126 125 124 125 126 127 129 133 134 135 134 134 133 132 131 129
94 95 96 96 97 98 100 101 102 102 104 106 108 109 111 112 113 113 112 112 112 112 113 114 115 115 116 117 118 118 119 121 124 127 130 131 131 131 130 129 128 128 128 128 130 133 137 139 141 142 145 148 151 152 151 150 148 147 146 145 142 139 136 132 128 124 122 120 119 120 120 120 121 122 123 126 128 130 130 130 129 129 127 126 124
93 93 93 94 95 96 97 98 98 97 98 101 102 103 104 106 107 107 108 109 110 110 111 112 112 113 113 114 114 114 114 115 118 121 124 126 126 126 125 124 124 124 123 122 123 125 127 130 131 131 132 134 137 138 138 137 135 133 132 131 129 128 127 124 121 119 118 117 116 116 117 117 117 118 120 121 123 124 124 124 123 122 120 119 117
91 92 92 93 94 95 95 95 95 95 96 98 99 99 100 101 101 101 102 103 104 105 106 108 109 110 110 111 112 111 111 112 114 117 119 120 121 120 120 119 119 119 118 118 119 121 123 125 127 127 126 127 129 130 131 131 129 128 126 124 123 123 123 120 117 116 116 115 113 114 114 113 113 115 116 117 118 118 118 117 116 114 113 112 112
90 91 92 92 93 93 94 93 94 94 95 96 97 98 98 98 98 98 98 98 99 100 101 102 103 105 105 107 108 108 108 109 110 112 114 115 116 115 115 115 115 113 112 114 117 119 120 120 121 121 122 122 124 125 126 126 125 123 120 118 119 120 118 115 114 116 115 112 110 112 113 112 111 112 113 114 114 113 113 112 111 110 109 109 109
Wind_Direction
248 247 246 245 245 247 248 249 249 249 250 251 252 252 252 251 250 250 249 248 248 248 248 248 248 248 248 248 248 248 249 249 250 251 252 253 253 254 255 256 257 257 258 258 259 259 259 260 260 260 260 260 260 260 260 260 260 259 259 259 258 257 256 256 255 254 254 254 255 256 257 258 260 261 263 264 265 266 266 265 265 265 265 265 265
252 250 249 248 247 247 248 249 248 248 249 250 250 251 251 250 250 250 249 248 247 247 247 247 247 247 248 248 248 249 249 249 249 249 250 251 251 252 253 254 255 256 256 257 258 258 258 258 259 259 259 258 257 257 257 257 256 256 256 255 255 254 252 252 253 253 254 256 257 259 260 261 262 263 264 264 265 265 266 265 265 265 265 266 266
256 254 253 251 250 249 249 250 249 248 248 249 249 249 250 249 249 249 248 247 246 246 247 247 247 247 248 248 248 248 249 249 249 249 249 250 250 250 251 251 252 253 254 254 255 256 256 257 257 257 257 257 256 256 255 254 254 254 253 253 252 251 250 250 251 253 255 257 258 260 261 262 263 264 264 264 264 263 263 264 264 265 265 265 266
260 259 257 255 253 252 251 252 252 251 250 249 248 248 249 249 249 249 249 247 246 247 247 247 247 247 248 248 248 249 249 249 249 249 249 249 250 249 249 250 250 250 251 251 252 253 254 254 255 255 255 256 256 255 255 254 253 252 252 251 251 250 250 250 251 254 256 257 258 259 261 262 263 264 264 264 263 263 263 263 264 264 265 265 265
261 261 260 259 257 255 253 253 254 254 253 251 250 249 249 250 249 249 250 249 248 247 248 247 247 247 248 249 249 250 250 250 250 250 250 250 250 250 250 250 250 250 250 250 251 251 252 253 253 254 254 255 255 255 254 253 252 252 252 251 250 251 251 251 252 254 256 257 258 260 261 262 263 264 264 264 264 264 264 264 264 264 264 265 266
262 261 261 261 260 259 257 255 255 255 254 254 253 252 251 251 251 250 251 251 250 249 249 249 248 247 247 248 249 249 250 250 250 250 250 250 251 251 251 251 251 251 251 251 251 251 251 252 252 253 253 253 254 254 254 253 252 252 252 252 251 251 252 252 253 254 255 257 258 260 261 262 263 264 264 264 264 264 265 265 265 265 266 267 268
264 263 263 262 261 261 260 258 257 256 256 255 254 254 253 253 253 253 253 253 253 251 251 252 251 249 248 249 248 248 248 249 249 250 250 251 251 252 252 252 252 253 253 253 252 252 252 252 252 252 252 252 252 252 252 252 251 251 252 252 251 251 252 252 253 254 256 258 259 260 262 263 264 265 265 265 265 264 264 265 266 267 267 268 269
264 264 264 264 263 262 262 261 259 258 257 256 256 255 255 255 255 255 255 256 256 255 254 254 254 253 252 251 251 250 249 249 249 249 250 250 251 251 252 252 252 253 253 253 253 253 253 252 252 252 252 251 251 251 251 251 251 251 251 252 252 251 252 252 253 255 257 259 260 261 262 263 264 265 265 266 266 265 265 265 266 266 267 268 269
262 263 263 264 264 263 263 262 261 260 259 258 258 257 257 256 256 256 256 257 257 257 256 256 256 256 255 254 254 254 253 253 252 252 252 251 250 250 251 251 251 251 252 253 253 254 253 252 252 251 251 251 250 250 250 250 251 250 250 251 252 252 252 252 254 255 257 259 260 261 261 262 264 264 265 266 266 266 266 266 266 266 266 267 268
262 261 261 262 263 263 263 263 263 262 262 261 260 260 259 259 259 259 258 258 258 258 258 257 257 257 257 257 257 257 257 257 257 256 255 254 253 251 251 250 251 251 251 252 253 253 253 253 252 251 251 251 250 250 250 250 250 250 250 250 251 252 252 253 254 255 257 258 259 260 260 261 262 263 264 265 266 266 266 266 266 266 267 267 268
264 262 261 261 262 263 263 263 264 264 263 263 262 262 261 261 261 261 260 260 260 260 260 259 259 259 259 258 257 257 258 258 258 258 258 258 257 255 254 253 252 252 252 252 252 252 252 252 252 252 252 251 251 251 251 250 250 250 250 250 250 251 252 253 254 255 256 257 258 259 260 260 261 262 263 264 265 265 266 266 266 266 266 267 268
266 264 263 261 261 261 262 262 263 263 263 263 262 261 261 261 260 260 260 260 260 261 261 261 260 260 260 259 259 259 259 258 258 257 258 258 259 258 257 257 256 255 254 253 252 252 252 252 252 252 252 252 252 252 251 251 251 251 250 250 250 251 252 254 254 255 256 257 257 258 259 260 261 262 263 263 264 265 265 265 265 265 266 266 267
267 266 264 263 262 261 261 261 261 262 262 262 261 261 260 259 259 258 258 258 258 259 260 260 260 259 259 260 260 260 260 259 258 258 257 257 257 258 259 259 259 258 257 256 255 255 254 253 253 253 253 254 254 253 253 252 252 252 251 251 251 251 252 253 254 255 256 257 258 258 259 261 262 263 264 264 264 265 265 265 265 265 266 266 267
269 267 265 264 263 262 261 261 261 261 261 261 261 260 260 259 259 258 258 258 257 258 258 258 259 258 259 260 260 259 259 260 260 259 257 257 258 258 259 259 259 259 258 258 257 258 258 257 256 255 255 255 255 255 254 254 254 253 253 253 253 253 253 254 255 256 257 258 259 259 260 261 262 263 264 265 265 266 266 266 266 266 266 266 266
271 269 267 265 264 263 262 262 261 261 261 261 261 260 260 259 259 258 258 258 258 258 257 257 258 258 258 258 258 258 259 259 258 258 258 259 259 259 258 258 258 258 258 257 257 257 258 259 258 256 256 256 256 256 256 256 256 256 256 256 256 256 256 256 257 258 259 260 260 261 261 261 262 263 263 264 265 266 266 266 266 266 266 266 266
271 270 269 268 266 265 264 263 262 261 261 261 261 260 260 259 259 258 258 258 258 259 259 259 258 258 257 256 256 256 257 257 257 258 259 259 259 259 259 259 258 258 257 257 256 256 256 257 257 257 257 257 257 258 258 258 258 258 258 258 258 259 259 259 259 260 260 261 261 262 262 262 262 262 263 263 264 265 265 266 266 266 267 267 267
268 268 268 268 267 267 266 265 264 263 262 262 262 261 260 259 259 258 258 258 258 258 259 259 259 259 258 257 256 255 254 255 256 258 258 258 258 258 258 258 258 258 257 257 257 256 256 257 257 257 258 258 258 258 258 258 258 259 259 259 260 261 261 262 262 261 261 262 262 263 263 263 263 262 263 263 263 264 264 265 266 266 267 267 268
264 265 265 266 266 266 266 266 266 265 265 264 263 262 262 261 260 259 258 258 257 258 258 259 259 259 260 259 258 256 254 254 255 256 256 257 257 257 257 256 256 256 257 257 257 258 258 258 258 258 258 258 258 258 258 258 258 258 259 259 260 261 262 263 264 263 263 263 263 263 264 264 263 263 263 263 263 264 264 264 265 266 266 267 268
260 261 262 262 263 264 264 265 265 265 265 265 265 264 264 263 262 261 260 259 258 257 258 258 258 258 259 259 258 258 256 256 256 256 256 256 256 256 256 256 256 256 256 257 257 258 259 259 260 259 258 258 258 257 257 258 258 258 259 259 260 261 262 263 264 264 264 264 265 265 265 265 265 265 264 264 264 264 264 264 265 265 265 266 267
258 259 259 260 260 261 262 262 263 263 264 264 264 264 264 264 264 263 262 261 259 258 258 258 258 257 257 257 258 258 257 256 256 256 256 256 256 256 256 256 256 256 256 256 256 257 258 259 259 259 259 259 258 258 258 258 258 258 259 259 260 261 261 262 263 263 264 264 264 266 266 267 267 267 267 266 266 265 265 265 265 265 266 267 268
258 257 257 257 258 259 259 260 261 262 262 263 263 263 263 263 263 263 263 262 261 260 259 259 259 258 257 256 256 256 256 255 255 255 256 256 256 256 256 256 255 255 255 255 256 256 256 257 258 258 259 259 259 259 259 259 259 259 259 259 260 261 262 262 263 263 263 263 263 264 265 266 266 266 267 267 267 266 266 266 266 267 267 268 268
257 257 257 257 257 257 258 258 259 260 261 261 262 263 263 263 263 262 262 262 262 262 261 260 260 259 258 257 256 255 255 254 253 253 254 254 255 256 257 256 255 255 255 255 255 255 255 256 256 257 257 258 259 259 259 259 259 259 259 259 260 261 261 262 263 263 264 263 263 263 264 264 264 265 266 266 266 266 267 267 267 267 268 268 269
256 256 256 256 256 256 256 257 257 258 259 260 260 261 261 262 262 262 261 261 261 261 261 260 260 260 259 259 258 257 256 255 254 253 252 253 253 254 255 256 256 256 256 255 255 255 255 256 256 257 257 258 258 258 258 258 258 258 259 259 259 260 261 262 264 264 265 265 264 264 264 265 264 265 265 265 266 266 267 267 267 268 268 268 269
255 256 255 255 255 255 256 256 256 256 257 258 258 259 260 260 261 261 261 261 260 260 260 259 259 259 259 259 259 259 259 257 256 254 253 252 252 252 253 255 255 255 256 256 256 256 256 256 257 257 257 257 258 259 259 259 258 258 258 258 259 259 261 262 264 265 266 266 266 266 266 266 267 266 266 266 267 267 268 268 268 268 269 269 270
254 254 255 255 254 254 255 255 255 255 255 256 256 257 258 259 259 260 260 260 260 259 259 259 258 258 258 258 259 259 259 259 258 257 256 254 253 252 252 253 253 254 255 255 256 256 256 256 257 258 258 258 258 259 260 260 259 258 258 259 259 260 261 262 264 265 266 267 267 267 267 268 268 268 268 268 269 269 269 269 269 269 270 270 271
253 253 253 253 254 254 254 254 254 254 255 255 255 255 256 256 257 258 258 259 259 259 258 258 258 257 257 257 258 258 258 258 258 258 258 256 255 253 253 253 253 253 254 254 255 255 256 256 256 257 258 259 259 259 260 261 261 260 260 260 260 261 262 263 264 266 267 267 267 268 268 268 268 268 269 269 269 269 270 270 270 270 270 270 271
252 252 252 253 253 253 253 253 253 253 253 254 254 254 255 255 255 256 256 257 257 257 257 257 257 257 256 256 256 257 257 257 257 258 258 258 257 256 255 254 253 253 253 254 254 254 255 255 256 256 257 258 258 259 260 261 262 262 261 261 261 261 262 263 264 266 267 267 268 268 268 269 269 269 269 269 269 269 270 270 270 270 270 270 270
252 251 251 252 252 252 253 253 253 253 253 253 253 253 254 254 255 255 255 255 256 256 256 256 256 256 256 255 255 255 255 255 256 256 257 257 257 257 256 256 255 254 254 254 254 254 254 255 255 255 256 256 257 258 258 260 261 262 262 262 262 262 262 263 264 265 266 266 267 268 268 269 269 269 269 269 269 269 269 270 270 270 270 270 271
252 252 252 252 252 252 252 252 252 253 253 253 253 253 253 253 253 254 255 255 255 255 256 256 256 256 255 255 255 255 255 255 255 255 256 256 256 256 256 257 256 255 255 254 254 254 255 255 255 255 256 256 256 257 257 258 260 261 262 263 263 262 262 262 263 264 264 265 265 266 266 267 267 268 268 269 269 269 269 269 270 270 270 271 271
252 252 252 252 252 252 252 252 252 252 253 253 253 253 253 253 253 253 254 255 255 255 255 255 255 256 256 256 256 256 256 256 255 255 255 255 255 256 256 256 257 256 256 255 255 255 255 256 255 256 256 256 256 256 257 257 259 260 262 262 263 263 262 262 263 263 264 264 265 265 266 266 266 266 267 267 267 268 268 268 268 269 270 270 271
252 252 252 252 252 252 253 253 253 253 253 253 253 252 252 252 252 253 253 254 254 254 254 254 254 254 255 255 256 256 256 256 256 256 256 256 255 255 255 256 256 256 256 255 255 255 255 256 256 256 256 256 257 257 257 257 258 259 261 262 262 262 262 262 262 263 263 263 264 265 266 267 267 267 266 266 266 266 266 266 266 267 267 268 269
252 252 252 252 253 253 253 253 253 253 253 253 253 253 253 253 253 252 253 253 253 253 253 253 253 253 253 254 255 255 256 256 256 256 256 256 256 256 256 256 256 256 256 256 255 254 254 255 256 256 256 256 257 257 257 258 258 259 260 261 262 262 263 263 263 262 262 262 263 264 265 266 267 267 267 267 267 266 265 265 264 265 265 266 267
253 253 253 253 253 253 253 253 253 253 253 253 253 253 253 253 253 253 253 253 253 253 253 253 253 253 253 253 254 255 255 256 256 256 256 257 257 256 256 256 256 256 257 257 256 255 254 254 255 255 256 256 256 257 257 257 258 258 259 259 261 262 262 263 263 263 263 262 263 263 264 265 265 266 267 267 267 267 266 265 264 264 264 264 264
254 254 254 253 253 253 253 253 254 254 254 254 254 253 253 253 253 253 253 254 254 254 254 253 253 253 253 253 254 254 255 256 256 256 256 257 257 257 257 257 257 257 257 258 257 257 256 255 255 256 256 256 256 256 257 257 257 257 258 258 260 261 262 262 263 263 263 263 263 263 263 264 265 265 266 267 267 268 268 267 266 265 264 264 264
255 255 254 254 254 254 254 254 254 254 254 254 254 254 254 254 254 254 254 254 254 254 255 255 255 255 255 255 255 255 256 256 256 257 257 257 258 258 258 258 258 258 258 259 259 258 257 257 257 257 257 257 258 257 257 257 257 258 258 258 259 259 260 261 262 262 263 263 263 263 263 264 264 265 265 266 266 267 268 268 267 266 266 266 265
256 256 255 255 255 255 255 255 255 255 255 255 255 255 255 255 255 255 255 255 255 255 255 255 255 255 255 255 256 256 256 257 257 257 257 258 258 259 259 259 259 259 259 260 260 260 259 258 258 258 258 259 259 259 260 259 260 260 260 260 260 260 260 261 261 262 262 262 262 263 263 263 263 264 264 265 265 266 267 267 268 268 268 268 268
257 256 256 256 256 256 256 256 256 256 256 256 256 256 256 256 256 256 256 256 256 256 256 256 256 256 256 256 256 256 256 257 257 257 257 258 259 259 260 260 261 261 261 261 261 261 261 260 260 259 259 259 259 260 261 261 261 261 262 262 262 262 263 263 263 263 263 263 263 262 262 262 262 262 263 263 264 264 265 266 267 267 268 269 269
260 259 258 257 257 257 257 257 257 257 257 257 257 257 257 257 257 257 257 256 256 256 256 256 256 256 256 256 256 256 257 257 257 257 257 257 258 259 259 260 261 261 262 262 262 262 262 262 262 261 261 260 260 260 260 260 261 261 262 263 263 264 264 264 264 264 263 263 263 263 263 262 262 262 262 262 263 263 264 264 265 266 267 268 268
263 262 261 260 259 259 258 258 258 257 257 257 257 258 258 258 258 258 258 257 257 257 257 257 257 257 257 257 257 257 257 257 257 257 257 257 258 258 258 259 259 260 261 261 262 262 263 263 263 263 262 262 261 261 261 261 261 262 263 263 263 263 263 263 262 262 262 262 262 263 263 263 263 263 263 262 262 263 263 263 264 265 266 267 267
264 264 263 262 262 261 261 260 259 259 258 258 258 258 258 258 258 258 258 258 258 258 258 258 258 258 258 258 258 258 258 258 258 258 258 258 258 258 258 258 259 259 260 260 261 261 262 262 262 262 263 263 262 262 262 262 263 263 264 263 263 263 263 262 262 262 262 263 263 263 263 263 263 262 262 262 262 262 263 263 263 264 265 266 266
265 265 265 264 264 263 263 262 262 261 260 260 259 259 258 258 258 259 259 259 259 259 259 259 259 259 259 259 259 259 259 259 259 259 259 259 259 258 258 258 259 259 259 260 260 261 261 262 262 262 262 262 262 262 262 263 263 263 263 264 264 264 264 264 264 264 265 264 264 263 262 262 261 261 260 260 261 261 261 262 262 263 264 264 265
266 266 266 265 265 265 264 264 263 263 263 262 262 261 260 260 260 260 260 260 260 260 260 260 260 260 260 259 259 259 259 259 259 259 259 259 259 259 259 259 259 259 259 260 260 260 261 261 261 262 262 262 262 262 262 262 263 263 263 264 264 264 265 265 266 266 266 266 265 263 262 261 260 259 259 259 259 259 260 260 261 261 262 263 264
266 266 266 266 266 265 265 265 265 264 264 264 263 263 262 262 261 261 260 260 260 260 260 260 260 260 260 260 260 260 259 259 259 259 259 259 259 259 259 259 259 259 260 260 260 260 260 261 261 261 262 262 262 262 262 262 262 263 263 263 263 264 264 265 266 266 267 266 265 264 261 260 259 258 258 258 258 258 259 259 260 261 261 262 264
267 267 267 266 266 266 266 266 265 265 265 264 264 264 263 263 262 262 261 261 261 261 261 261 260 260 260 260 260 260 260 260 260 260 259 259 259 259 259 259 259 259 260 260 260 260 261 261 261 261 261 261 262 262 262 262 262 262 262 263 263 263 264 265 265 266 266 266 265 263 261 260 259 258 258 258 258 258 259 259 260 260 261 263 264
267 267 267 267 267 267 267 266 266 266 265 265 265 265 265 264 264 264 263 262 262 261 261 261 261 261 260 260 260 260 260 260 260 260 260 259 259 259 259 259 259 259 260 260 260 260 261 261 261 262 262 261 261 262 262 262 262 262 262 263 263 263 264 264 265 265 264 264 263 262 261 260 259 258 258 258 258 258 259 259 260 261 262 263 264
266 266 266 266 266 266 266 266 266 266 266 266 266 266 266 266 265 265 265 264 264 263 262 262 262 261 261 260 260 260 260 260 260 260 260 260 259 259 259 259 259 259 260 260 260 260 260 261 261 261 262 262 262 261 261 262 262 262 262 263 263 263 263 263 263 263 262 262 261 261 261 261 260 259 258 258 259 259 259 259 260 261 262 263 264
268 267 267 267 266 266 266 265 265 265 265 265 265 266 266 266 266 266 266 266 265 265 264 263 262 261 261 260 260 259 259 259 259 259 260 259 259 259 259 259 259 259 259 259 260 260 260 260 260 260 260 261 261 262 262 262 262 262 262 262 262 262 262 262 262 261 261 260 260 260 260 260 259 258 258 258 258 258 258 259 259 260 261 262 263
270 270 269 269 268 267 267 266 265 265 265 265 265 264 264 265 265 266 266 266 266 265 265 264 263 262 262 261 261 260 259 259 259 259 259 259 259 259 259 259 259 259 258 258 258 259 259 259 259 258 259 259 260 260 260 260 260 260 260 260 260 260 260 260 259 259 259 258 258 258 258 258 257 257 256 256 257 257 258 258 258 259 260 260 261
272 272 271 270 270 269 268 268 268 267 267 267 266 265 264 264 264 264 264 264 264 264 264 264 264 264 264 263 263 262 261 260 260 260 260 260 260 260 260 260 260 259 259 258 258 257 257 257 257 257 257 256 257 257 258 258 258 258 258 258 258 258 258 258 257 257 257 257 256 256 256 256 256 256 255 255 256 256 256 257 257 257 258 258 258
273 272 272 271 271 270 270 270 270 269 269 268 268 267 266 266 265 264 264 264 264 264 264 264 264 264 264 264 264 263 262 261 261 260 260 260 260 261 261 261 260 260 260 259 259 257 257 256 256 256 256 255 255 256 256 256 256 256 256 256 256 256 256 256 256 256 256 255 255 256 256 255 255 255 255 254 255 255 255 256 256 256 255 255 255
274 273 272 272 271 271 271 271 270 270 269 269 269 268 268 267 267 266 266 265 265 264 264 264 264 264 264 264 264 264 263 262 262 261 261 261 261 261 261 261 260 260 260 260 259 258 256 255 255 255 255 255 255 255 255 255 255 255 255 254 254 254 254 254 254 254 254 255 255 255 255 254 254 253 254 254 253 253 254 254 254 254 253 252 252
Height
10764 10765 10765 10765 10766 10765 10765 10765 10765 10765 10765 10765 10766 10767 10767 10767 10767 10766 10767 10767 10766 10765 10765 10765 10766 10765 10765 10765 10766 10766 10766 10767 10767 10767 10767 10768 10769 10769 10770 10771 10771 10772 10773 10773 10774 10775 10775 10775 10776 10776 10776 10777 10777 10778 10779 10779 10779 10779 10780 10780 10781 10782 10783 10783 10784 10785 10785 10786 10788 10788 10789 10790 10791 10791 10791 10792 10793 10794 10794 10794 10795 10795 10795 10794 10794
10760 10760 10760 10761 10761 10761 10760 10760 10760 10760 10761 10761 10762 10762 10762 10763 10762 10761 10762 10762 10762 10761 10760 10761 10761 10761 10761 10761 10761 10761 10761 10762 10763 10763 10762 10763 10764 10764 10765 10766 10766 10767 10767 10768 10769 10769 10770 10770 10771 10771 10771 10772 10772 10773 10773 10774 10774 10775 10775 10776 10777 10778 10779 10780 10780 10781 10781 10782 10784 10784 10784 10785 10786 10787 10787 10788 10789 10789 10790 10790 10791 10791 10791 10791 10791
10755 10755 10755 10756 10756 10756 10755 10755 10755 10755 10756 10756 10757 10757 10757 10757 10757 10756 10756 10757 10757 10756 10755 10756 10757 10756 10756 10756 10757 10757 10757 10757 10758 10759 10758 10758 10759 10760 10760 10761 10761 10762 10762 10763 10764 10764 10765 10765 10766 10766 10766 10766 10767 10768 10768 10769 10770 10770 10771 10772 10773 10774 10775 10776 10777 10777 10777 10779 10780 10780 10780 10781 10782 10782 10783 10784 10785 10785 10785 10786 10786 10787 10787 10787 10787
10750 10749 10750 10750 10751 10751 10751 10750 10750 10750 10751 10751 10751 10751 10751 10751 10751 10750 10750 10751 10751 10751 10751 10751 10752 10751 10751 10751 10752 10752 10752 10752 10753 10754 10754 10754 10754 10755 10755 10756 10756 10756 10757 10758 10759 10759 10760 10760 10761 10761 10761 10761 10762 10763 10764 10765 10766 10766 10766 10767 10768 10770 10771 10772 10773 10773 10773 10775 10776 10776 10777 10777 10777 10778 10779 10779 10780 10780 10781 10781 10782 10782 10782 10783 10783
10744 10744 10744 10744 10745 10745 10745 10745 10745 10745 10745 10745 10745 10745 10745 10744 10744 10744 10743 10744 10745 10745 10745 10745 10747 10747 10746 10746 10747 10747 10747 10747 10748 10748 10748 10748 10749 10749 10750 10750 10751 10751 10752 10753 10754 10754 10755 10755 10756 10756 10756 10757 10758 10759 10759 10760 10762 10762 10762 10763 10764 10765 10766 10768 10769 10769 10769 10771 10772 10773 10773 10773 10773 10774 10775 10775 10775 10776 10776 10777 10777 10777 10778 10778 10778
10739 10739 10738 10738 10739 10739 10739 10739 10739 10739 10739 10738 10738 10739 10739 10738 10738 10738 10737 10737 10739 10740 10740 10740 10741 10741 10741 10741 10741 10741 10741 10741 10742 10742 10742 10743 10743 10744 10745 10745 10745 10746 10747 10748 10748 10749 10750 10750 10751 10751 10751 10752 10753 10754 10754 10755 10757 10758 10757 10758 10760 10761 10762 10763 10765 10765 10766 10767 10768 10769 10769 10769 10769 10770 10770 10771 10771 10771 10771 10771 10772 10773 10773 10773 10774
10733 10733 10733 10733 10733 10733 10733 10733 10733 10732 10732 10732 10732 10732 10732 10732 10732 10732 10732 10731 10732 10734 10735 10734 10735 10736 10736 10736 10735 10735 10735 10735 10735 10736 10736 10737 10738 10738 10739 10739 10740 10741 10742 10743 10743 10744 10744 10745 10746 10745 10746 10746 10747 10748 10749 10750 10752 10753 10753 10753 10755 10757 10757 10759 10760 10761 10762 10763 10764 10765 10765 10764 10765 10766 10766 10766 10767 10767 10767 10767 10767 10768 10768 10768 10769
10728 10728 10727 10727 10726 10726 10726 10727 10727 10726 10726 10726 10726 10725 10725 10725 10725 10725 10726 10726 10726 10728 10729 10729 10729 10730 10731 10730 10730 10730 10730 10729 10730 10730 10731 10732 10732 10733 10733 10733 10734 10735 10737 10737 10738 10738 10739 10740 10740 10740 10740 10740 10741 10742 10743 10744 10746 10747 10748 10748 10750 10752 10753 10754 10756 10757 10757 10758 10759 10760 10760 10760 10760 10761 10761 10762 10762 10762 10762 10762 10762 10762 10762 10763 10764
10722 10722 10722 10721 10720 10720 10720 10720 10720 10719 10719 10719 10719 10719 10719 10719 10719 10719 10720 10720 10720 10721 10722 10722 10723 10724 10724 10724 10724 10724 10724 10725 10726 10726 10726 10726 10726 10727 10726 10727 10727 10729 10731 10732 10732 10733 10734 10734 10734 10734 10734 10734 10735 10736 10737 10738 10740 10741 10743 10743 10744 10746 10747 10748 10750 10751 10752 10753 10753 10754 10754 10755 10755 10756 10756 10757 10757 10757 10757 10757 10757 10757 10758 10758 10758
10716 10716 10716 10715 10714 10714 10713 10713 10713 10713 10713 10713 10712 10712 10712 10712 10713 10713 10714 10714 10714 10713 10714 10715 10716 10717 10717 10718 10718 10718 10719 10720 10721 10721 10720 10719 10720 10720 10720 10720 10721 10723 10725 10727 10727 10727 10727 10728 10728 10728 10728 10728 10729 10730 10731 10733 10734 10735 10737 10738 10738 10740 10741 10742 10745 10746 10746 10747 10747 10748 10748 10749 10750 10750 10751 10751 10752 10752 10751 10752 10752 10752 10753 10753 10753
10709 10708 10708 10708 10708 10707 10707 10707 10707 10707 10707 10706 10706 10706 10706 10706 10706 10706 10707 10707 10707 10706 10706 10708 10709 10710 10710 10710 10710 10711 10712 10714 10715 10714 10713 10712 10713 10713 10714 10715 10716 10718 10720 10721 10721 10721 10721 10721 10722 10722 10722 10723 10724 10724 10726 10727 10728 10729 10730 10731 10732 10733 10734 10735 10738 10739 10739 10740 10741 10741 10741 10743 10744 10744 10745 10745 10746 10746 10746 10746 10747 10747 10747 10748 10748
10701 10701 10700 10700 10700 10700 10700 10700 10700 10699 10699 10699 10699 10699 10699 10699 10699 10699 10699 10699 10699 10699 10699 10701 10703 10703 10702 10702 10703 10705 10707 10707 10706 10705 10706 10706 10705 10705 10707 10710 10711 10712 10714 10715 10714 10714 10713 10714 10715 10716 10717 10717 10718 10719 10720 10721 10722 10723 10724 10724 10725 10726 10727 10728 10730 10732 10732 10733 10734 10734 10735 10736 10737 10737 10738 10739 10740 10740 10740 10740 10741 10741 10742 10742 10743
10694 10693 10693 10692 10692 10692 10692 10692 10692 10691 10691 10691 10691 10692 10692 10692 10692 10692 10692 10692 10692 10692 10692 10693 10694 10694 10694 10695 10698 10700 10699 10698 10697 10697 10698 10697 10697 10698 10701 10703 10704 10705 10707 10708 10707 10707 10706 10708 10709 10710 10711 10712 10713 10714 10715 10715 10716 10717 10717 10718 10718 10719 10720 10721 10723 10725 10725 10725 10726 10727 10728 10729 10729 10730 10731 10732 10733 10734 10734 10734 10735 10735 10736 10736 10737
10686 10686 10685 10685 10684 10684 10684 10684 10684 10684 10683 10683 10683 10683 10684 10684 10684 10685 10685 10685 10685 10685 10685 10685 10685 10686 10687 10690 10691 10691 10691 10691 10690 10688 10688 10689 10691 10693 10695 10695 10695 10696 10699 10700 10700 10699 10700 10701 10703 10704 10704 10705 10706 10707 10708 10709 10710 10710 10711 10711 10711 10712 10713 10715 10717 10718 10718 10719 10720 10720 10721 10722 10723 10723 10724 10725 10726 10727 10727 10728 10728 10729 10729 10730 10731
10678 10678 10677 10677 10677 10676 10676 10676 10676 10675 10675 10675 10675 10675 10675 10676 10677 10677 10678 10678 10678 10678 10678 10678 10678 10678 10680 10683 10683 10683 10685 10684 10679 10679 10682 10684 10685 10686 10686 10686 10687 10688 10690 10691 10691 10692 10692 10692 10694 10696 10697 10699 10700 10701 10702 10702 10703 10704 10704 10705 10705 10706 10706 10708 10711 10712 10712 10712 10713 10713 10714 10715 10716 10717 10717 10718 10719 10720 10720 10721 10722 10722 10723 10724 10724
10669 10669 10668 10668 10668 10668 10667 10667 10667 10667 10667 10667 10666 10666 10667 10668 10668 10669 10670 10671 10671 10670 10670 10671 10671 10670 10671 10674 10675 10677 10678 10673 10670 10673 10677 10678 10677 10677 10678 10679 10680 10681 10681 10681 10682 10683 10684 10684 10685 10688 10690 10692 10693 10694 10694 10695 10696 10696 10698 10698 10699 10699 10700 10702 10705 10706 10706 10705 10706 10706 10707 10708 10709 10710 10710 10711 10712 10713 10713 10714 10714 10715 10716 10717 10717
10660 10659 10659 10658 10658 10658 10658 10658 10658 10658 10658 10658 10657 10657 10657 10658 10659 10660 10661 10662 10663 10662 10662 10663 10663 10661 10662 10666 10667 10669 10669 10664 10664 10668 10669 10669 10669 10669 10670 10671 10671 10672 10673 10673 10673 10675 10676 10677 10678 10681 10683 10684 10685 10686 10686 10686 10687 10689 10690 10691 10692 10692 10694 10695 10697 10699 10700 10699 10699 10699 10700 10701 10702 10703 10703 10704 10705 10706 10706 10707 10707 10708 10709 10710 10710
10651 10650 10650 10649 10649 10648 10648 10647 10648 10648 10648 10648 10648 10648 10648 10648 10649 10651 10652 10652 10653 10654 10654 10654 10654 10653 10654 10657 10657 10659 10660 10658 10658 10660 10660 10661 10662 10661 10661 10662 10663 10664 10664 10664 10666 10667 10668 10669 10672 10675 10676 10676 10676 10677 10677 10677 10679 10680 10682 10683 10685 10685 10686 10687 10688 10690 10692 10692 10692 10692 10693 10694 10695 10695 10696 10697 10698 10698 10698 10699 10700 10701 10701 10702 10703
10640 10640 10640 10640 10639 10638 10638 10638 10637 10638 10638 10638 10638 10638 10638 10638 10639 10641 10642 10642 10644 10646 10645 10643 10644 10646 10645 10646 10647 10649 10651 10652 10651 10652 10653 10653 10653 10652 10653 10653 10654 10656 10656 10657 10658 10660 10661 10662 10665 10667 10667 10667 10667 10667 10667 10669 10670 10672 10673 10675 10676 10677 10678 10679 10679 10681 10683 10685 10685 10685 10685 10687 10688 10688 10689 10690 10690 10691 10691 10691 10693 10693 10693 10694 10695
10629 10629 10629 10629 10629 10629 10628 10628 10627 10627 10627 10627 10627 10628 10628 10628 10628 10630 10631 10632 10633 10635 10636 10634 10635 10636 10635 10635 10637 10639 10641 10643 10643 10643 10644 10645 10644 10643 10644 10644 10647 10649 10648 10648 10650 10652 10654 10655 10656 10657 10658 10658 10658 10658 10659 10661 10662 10663 10665 10666 10668 10669 10670 10670 10671 10672 10673 10676 10677 10677 10677 10679 10680 10680 10681 10682 10683 10683 10683 10684 10685 10686 10686 10687 10688
10617 10617 10617 10618 10618 10618 10618 10617 10617 10617 10617 10616 10616 10617 10617 10617 10618 10618 10619 10620 10622 10624 10626 10625 10625 10625 10625 10625 10627 10628 10630 10632 10634 10634 10634 10636 10636 10635 10635 10636 10639 10640 10638 10640 10643 10645 10646 10647 10647 10648 10648 10648 10649 10650 10651 10652 10653 10654 10656 10658 10659 10661 10661 10662 10662 10663 10664 10666 10668 10669 10668 10669 10671 10672 10672 10673 10674 10675 10675 10676 10677 10678 10678 10679 10680
10605 10605 10605 10606 10606 10606 10606 10606 10606 10606 10606 10606 10605 10606 10606 10606 10607 10607 10608 10609 10610 10612 10614 10615 10614 10614 10614 10615 10616 10617 10618 10620 10623 10623 10623 10626 10628 10627 10625 10626 10630 10630 10629 10632 10634 10636 10638 10639 10639 10640 10640 10639 10639 10640 10642 10643 10644 10646 10648 10650 10651 10652 10653 10653 10653 10654 10655 10657 10659 10660 10659 10660 10661 10662 10663 10663 10664 10665 10666 10667 10667 10669 10670 10671 10672
10592 10593 10593 10593 10593 10594 10594 10594 10594 10594 10594 10594 10594 10594 10594 10595 10595 10596 10596 10597 10598 10600 10602 10603 10603 10603 10603 10603 10604 10605 10606 10609 10610 10610 10612 10615 10617 10618 10617 10615 10619 10621 10619 10621 10624 10627 10630 10631 10631 10631 10631 10631 10631 10631 10632 10633 10635 10637 10639 10641 10642 10644 10645 10645 10645 10645 10646 10647 10649 10650 10650 10651 10652 10653 10653 10654 10654 10655 10656 10657 10658 10659 10660 10661 10662
10578 10579 10579 10580 10580 10580 10581 10581 10581 10582 10582 10581 10582 10582 10582 10582 10583 10583 10584 10585 10587 10588 10590 10590 10591 10592 10591 10591 10592 10593 10594 10596 10597 10598 10601 10604 10605 10608 10609 10605 10608 10611 10609 10610 10615 10618 10620 10622 10622 10622 10622 10622 10622 10621 10622 10623 10626 10628 10630 10632 10634 10636 10637 10637 10637 10637 10637 10638 10639 10641 10642 10642 10643 10643 10644 10645 10645 10646 10647 10647 10648 10649 10650 10651 10652
10563 10563 10564 10565 10565 10566 10566 10567 10567 10568 10568 10569 10569 10569 10569 10569 10569 10570 10571 10572 10574 10576 10577 10577 10578 10579 10580 10579 10580 10581 10582 10582 10583 10585 10588 10590 10592 10597 10597 10594 10597 10601 10599 10601 10605 10607 10610 10612 10611 10611 10612 10613 10613 10612 10612 10612 10614 10618 10621 10624 10625 10627 10629 10629 10629 10628 10629 10629 10630 10631 10633 10633 10634 10635 10635 10636 10636 10637 10638 10638 10639 10640 10641 10642 10643
10546 10547 10547 10548 10549 10550 10551 10552 10552 10553 10553 10554 10554 10555 10556 10556 10556 10557 10558 10559 10561 10562 10563 10564 10565 10566 10567 10568 10568 10569 10569 10568 10569 10572 10574 10576 10579 10583 10583 10583 10586 10589 10590 10591 10594 10597 10600 10600 10599 10600 10601 10601 10602 10602 10602 10601 10603 10607 10611 10615 10616 10618 10620 10621 10621 10621 10620 10621 10622 10622 10623 10624 10625 10626 10626 10627 10627 10628 10629 10629 10630 10631 10632 10633 10634
10529 10530 10530 10531 10532 10533 10534 10535 10536 10537 10538 10538 10539 10540 10540 10541 10542 10542 10543 10545 10547 10548 10549 10549 10550 10552 10554 10555 10556 10556 10556 10556 10557 10559 10560 10562 10565 10567 10569 10571 10575 10578 10579 10580 10584 10588 10589 10586 10587 10590 10590 10589 10590 10591 10592 10592 10592 10595 10599 10604 10606 10608 10610 10612 10612 10613 10613 10613 10614 10614 10615 10616 10616 10617 10618 10618 10619 10619 10620 10620 10621 10622 10623 10624 10625
10511 10512 10513 10514 10515 10516 10517 10518 10520 10521 10522 10523 10524 10524 10525 10526 10526 10527 10528 10530 10532 10533 10533 10535 10536 10537 10539 10541 10542 10542 10541 10542 10544 10545 10546 10548 10551 10552 10554 10557 10561 10564 10567 10569 10574 10578 10576 10573 10576 10578 10577 10576 10578 10579 10581 10583 10582 10582 10587 10591 10595 10598 10600 10601 10603 10604 10604 10604 10605 10605 10605 10606 10607 10608 10608 10609 10609 10610 10611 10611 10612 10612 10614 10615 10616
10494 10494 10495 10496 10497 10498 10500 10501 10502 10503 10505 10506 10507 10508 10509 10510 10510 10511 10512 10513 10516 10517 10517 10520 10521 10522 10524 10525 10527 10528 10526 10527 10529 10531 10532 10533 10536 10538 10539 10542 10544 10550 10556 10558 10562 10566 10563 10561 10564 10565 10563 10563 10564 10566 10569 10572 10572 10571 10575 10579 10581 10585 10588 10590 10593 10594 10595 10595 10596 10596 10596 10596 10597 10598 10598 10599 10600 10601 10601 10602 10602 10603 10604 10605 10606
10477 10477 10477 10478 10479 10480 10481 10482 10483 10485 10486 10487 10489 10491 10492 10492 10493 10494 10495 10496 10498 10500 10501 10503 10505 10506 10508 10509 10510 10512 10511 10511 10513 10515 10517 10519 10520 10522 10524 10527 10528 10534 10541 10544 10549 10555 10552 10549 10553 10552 10549 10549 10550 10553 10557 10561 10561 10561 10564 10566 10567 10571 10574 10577 10581 10584 10585 10585 10586 10587 10587 10587 10587 10588 10588 10589 10590 10590 10591 10592 10592 10593 10594 10595 10596
10459 10460 10460 10461 10461 10462 10463 10463 10464 10465 10466 10467 10469 10470 10472 10473 10474 10475 10477 10478 10480 10481 10482 10485 10488 10489 10491 10493 10494 10495 10495 10496 10497 10498 10501 10503 10505 10507 10509 10512 10513 10518 10523 10527 10536 10546 10541 10536 10539 10537 10535 10536 10537 10540 10546 10548 10548 10549 10552 10553 10553 10555 10560 10565 10568 10571 10573 10574 10575 10577 10577 10577 10577 10577 10578 10578 10579 10580 10580 10581 10582 10583 10584 10585 10586
10441 10442 10443 10444 10444 10444 10445 10446 10446 10446 10447 10447 10448 10450 10451 10452 10454 10455 10457 10458 10461 10463 10463 10466 10469 10471 10474 10476 10477 10478 10478 10481 10482 10482 10483 10485 10488 10491 10493 10496 10498 10501 10505 10508 10520 10534 10530 10523 10524 10524 10522 10524 10525 10528 10533 10534 10534 10537 10539 10539 10539 10541 10546 10551 10553 10557 10561 10563 10564 10566 10567 10567 10567 10566 10567 10567 10567 10568 10569 10570 10571 10571 10573 10574 10575
10421 10422 10423 10424 10425 10426 10426 10426 10427 10427 10428 10428 10429 10430 10431 10432 10433 10434 10436 10437 10440 10443 10445 10447 10448 10451 10456 10459 10460 10460 10461 10464 10467 10467 10467 10468 10470 10474 10476 10478 10481 10483 10486 10490 10501 10516 10518 10512 10512 10511 10509 10510 10513 10516 10518 10519 10520 10522 10524 10526 10527 10528 10532 10536 10539 10543 10547 10550 10552 10554 10555 10556 10555 10555 10555 10555 10555 10556 10557 10559 10559 10560 10561 10563 10564
10400 10402 10403 10403 10404 10405 10406 10406 10406 10407 10408 10408 10409 10410 10412 10413 10414 10414 10416 10418 10420 10422 10424 10427 10429 10431 10435 10440 10443 10443 10443 10447 10450 10450 10451 10452 10452 10456 10459 10461 10465 10466 10467 10472 10481 10494 10503 10501 10498 10498 10497 10496 10500 10503 10503 10504 10505 10505 10509 10515 10516 10516 10517 10521 10525 10528 10531 10534 10537 10540 10541 10543 10543 10543 10543 10543 10543 10543 10544 10546 10547 10547 10548 10550 10552
10377 10379 10380 10382 10382 10383 10384 10385 10385 10386 10387 10388 10389 10390 10390 10392 10393 10395 10396 10398 10401 10403 10405 10407 10409 10411 10414 10420 10423 10424 10425 10429 10433 10433 10434 10435 10435 10438 10441 10443 10447 10450 10450 10453 10462 10474 10484 10485 10484 10486 10485 10483 10485 10488 10488 10489 10490 10490 10496 10502 10502 10503 10504 10507 10510 10513 10515 10518 10521 10524 10527 10528 10529 10529 10529 10530 10530 10531 10532 10533 10534 10534 10535 10538 10540
10355 10356 10357 10359 10360 10361 10361 10362 10363 10364 10365 10366 10368 10369 10369 10370 10372 10374 10375 10377 10380 10384 10386 10388 10390 10391 10394 10399 10403 10404 10405 10409 10414 10415 10415 10416 10417 10419 10422 10424 10426 10431 10432 10435 10442 10452 10461 10468 10470 10471 10471 10470 10471 10471 10471 10473 10475 10477 10481 10484 10486 10489 10491 10492 10495 10498 10499 10501 10505 10508 10511 10513 10515 10515 10516 10516 10517 10518 10518 10519 10520 10521 10522 10524 10526
10333 10333 10334 10335 10337 10338 10339 10340 10340 10341 10342 10343 10345 10346 10347 10347 10349 10352 10354 10356 10358 10362 10366 10369 10371 10373 10375 10380 10384 10385 10386 10390 10395 10396 10395 10396 10398 10400 10403 10405 10405 10408 10412 10416 10422 10429 10438 10448 10454 10454 10455 10458 10459 10457 10456 10457 10459 10461 10464 10467 10471 10474 10476 10478 10480 10482 10482 10483 10487 10490 10493 10496 10499 10500 10502 10502 10503 10505 10506 10507 10508 10509 10509 10511 10512
10311 10311 10312 10313 10314 10315 10317 10317 10318 10318 10319 10320 10321 10322 10323 10323 10325 10328 10331 10334 10337 10340 10344 10347 10350 10353 10356 10360 10364 10365 10366 10370 10375 10377 10376 10377 10379 10382 10385 10386 10385 10387 10390 10395 10400 10406 10414 10425 10432 10434 10437 10442 10444 10443 10443 10441 10442 10445 10449 10452 10456 10460 10462 10463 10463 10463 10462 10464 10468 10471 10474 10478 10482 10485 10487 10488 10490 10492 10493 10495 10496 10496 10496 10496 10497
10290 10290 10291 10291 10292 10292 10293 10294 10295 10295 10297 10297 10297 10297 10298 10298 10300 10303 10307 10311 10314 10318 10322 10326 10329 10332 10335 10339 10343 10345 10346 10349 10353 10356 10357 10358 10360 10363 10366 10367 10367 10368 10371 10374 10377 10382 10391 10401 10409 10413 10417 10421 10424 10426 10428 10426 10426 10431 10435 10439 10442 10445 10446 10445 10444 10442 10442 10445 10449 10452 10455 10460 10464 10467 10469 10472 10476 10478 10479 10481 10482 10482 10482 10482 10483
10269 10269 10269 10269 10270 10269 10269 10270 10271 10272 10273 10275 10275 10273 10272 10273 10274 10277 10281 10286 10290 10295 10300 10304 10308 10311 10314 10317 10320 10323 10325 10326 10330 10333 10336 10337 10340 10343 10346 10347 10347 10348 10352 10355 10357 10361 10368 10377 10386 10392 10395 10399 10404 10408 10410 10410 10411 10416 10418 10418 10420 10423 10424 10425 10425 10425 10426 10430 10435 10438 10439 10442 10446 10450 10452 10455 10460 10462 10464 10466 10467 10468 10469 10468 10468
10247 10247 10247 10248 10248 10248 10248 10248 10248 10249 10251 10252 10252 10249 10248 10250 10251 10253 10258 10262 10267 10271 10276 10282 10286 10288 10291 10294 10297 10300 10302 10304 10306 10310 10313 10315 10316 10320 10325 10326 10325 10328 10332 10335 10338 10342 10347 10354 10362 10369 10373 10379 10386 10389 10391 10393 10397 10398 10395 10393 10398 10402 10403 10404 10406 10408 10412 10416 10420 10424 10426 10427 10429 10430 10433 10438 10444 10447 10449 10452 10453 10454 10454 10453 10452
10226 10226 10227 10227 10226 10226 10227 10228 10228 10229 10229 10230 10228 10225 10225 10227 10229 10232 10236 10240 10245 10249 10253 10258 10262 10265 10267 10269 10273 10276 10279 10281 10284 10286 10289 10291 10292 10296 10301 10303 10302 10305 10310 10314 10318 10322 10326 10331 10339 10345 10349 10357 10367 10370 10371 10375 10377 10375 10375 10376 10380 10381 10381 10383 10388 10391 10394 10397 10401 10406 10410 10409 10408 10409 10413 10420 10426 10429 10433 10437 10438 10438 10437 10437 10438
10207 10207 10207 10207 10206 10205 10205 10207 10209 10209 10208 10206 10203 10202 10205 10206 10207 10210 10215 10220 10223 10226 10230 10234 10239 10242 10243 10244 10246 10250 10254 10257 10260 10263 10265 10266 10268 10271 10275 10278 10279 10281 10286 10291 10297 10301 10304 10309 10318 10323 10326 10334 10344 10346 10349 10354 10355 10355 10358 10359 10358 10359 10362 10366 10371 10372 10374 10377 10378 10382 10386 10387 10387 10389 10393 10401 10408 10412 10417 10421 10421 10421 10421 10423 10426
10189 10189 10189 10188 10187 10186 10185 10187 10189 10189 10188 10184 10180 10181 10184 10184 10184 10186 10193 10200 10205 10207 10209 10212 10215 10219 10221 10221 10222 10225 10229 10232 10235 10237 10239 10242 10244 10245 10247 10251 10255 10258 10263 10268 10275 10279 10282 10285 10293 10301 10306 10314 10321 10321 10323 10329 10332 10332 10335 10337 10339 10342 10344 10347 10351 10354 10355 10353 10352 10355 10363 10366 10368 10371 10377 10383 10391 10396 10401 10404 10404 10404 10407 10410 10413
10172 10172 10171 10169 10168 10167 10166 10168 10170 10169 10167 10162 10160 10162 10164 10164 10163 10165 10171 10180 10186 10189 10191 10191 10193 10195 10198 10200 10201 10203 10206 10208 10209 10210 10212 10215 10217 10218 10220 10224 10229 10235 10240 10246 10251 10256 10259 10262 10268 10277 10285 10292 10296 10298 10299 10301 10303 10307 10312 10317 10320 10322 10322 10326 10332 10334 10331 10328 10328 10332 10341 10347 10350 10356 10363 10367 10372 10377 10383 10386 10386 10388 10392 10396 10398
10156 10155 10154 10152 10151 10150 10149 10150 10151 10150 10147 10143 10143 10146 10146 10145 10145 10146 10151 10159 10164 10168 10171 10172 10171 10173 10175 10177 10180 10184 10186 10184 10184 10184 10185 10187 10189 10191 10194 10199 10205 10212 10217 10222 10227 10233 10237 10239 10244 10254 10263 10264 10267 10274 10275 10273 10277 10284 10289 10293 10296 10297 10300 10305 10308 10307 10307 10311 10314 10315 10322 10332 10335 10340 10348 10352 10352 10357 10363 10366 10368 10371 10375 10380 10383
10139 10138 10137 10136 10135 10134 10132 10131 10132 10133 10130 10126 10127 10129 10128 10127 10128 10130 10134 10139 10143 10146 10149 10149 10149 10149 10152 10153 10155 10161 10164 10163 10161 10160 10159 10160 10163 10167 10172 10178 10185 10191 10195 10199 10205 10209 10212 10215 10219 10230 10239 10239 10239 10244 10247 10248 10254 10261 10264 10266 10270 10272 10277 10283 10286 10287 10293 10301 10302 10299 10306 10317 10317 10321 10332 10334 10331 10334 10342 10347 10351 10355 10359 10363 10366
10122 10121 10120 10119 10118 10117 10115 10112 10113 10116 10114 10110 10110 10113 10111 10110 10112 10115 10118 10121 10123 10125 10126 10125 10125 10127 10130 10131 10134 10139 10143 10145 10143 10139 10135 10136 10139 10144 10152 10158 10164 10169 10174 10180 10185 10187 10188 10190 10195 10204 10214 10217 10214 10216 10220 10223 10229 10237 10239 10241 10245 10251 10257 10263 10268 10272 10278 10283 10284 10283 10290 10296 10296 10302 10312 10312 10310 10316 10322 10327 10334 10339 10343 10347 10349
10106 10105 10104 10103 10101 10099 10098 10096 10096 10100 10099 10093 10092 10095 10094 10094 10097 10100 10102 10102 10104 10105 10107 10106 10106 10108 10110 10111 10114 10118 10123 10126 10125 10120 10116 10116 10118 10125 10132 10139 10144 10148 10154 10162 10166 10165 10166 10167 10170 10179 10189 10195 10193 10193 10197 10199 10204 10212 10216 10219 10228 10234 10236 10242 10251 10257 10259 10262 10265 10267 10270 10275 10279 10285 10289 10290 10293 10299 10303 10309 10316 10321 10325 10329 10331
10091 10089 10087 10087 10085 10082 10082 10082 10081 10083 10082 10077 10074 10077 10077 10076 10079 10083 10084 10086 10088 10089 10090 10090 10089 10091 10092 10092 10093 10097 10102 10105 10103 10100 10098 10098 10101 10107 10114 10119 10123 10129 10137 10144 10144 10142 10143 10144 10148 10155 10166 10173 10173 10173 10175 10179 10183 10189 10194 10202 10212 10214 10214 10223 10236 10239 10236 10241 10250 10251 10251 10258 10265 10267 10268 10272 10277 10283 10288 10293 10299 10303 10308 10313 10315
10076 10073 10070 10070 10070 10068 10067 10067 10066 10066 10065 10062 10059 10059 10059 10059 10061 10065 10067 10070 10072 10072 10073 10074 10073 10074 10075 10075 10074 10076 10080 10084 10083 10081 10081 10080 10083 10091 10096 10099 10103 10113 10122 10123 10117 10114 10117 10121 10129 10137 10145 10151 10153 10153 10155 10160 10164 10168 10176 10187 10193 10192 10197 10211 10219 10215 10215 10228 10238 10234 10231 10240 10247 10247 10249 10254 10260 10267 10272 10276 10281 10285 10290 10295 10297